GFSCGP_sfc_dewp_000.txt.gz
Dewpoint
31 24 19 18 23 25 27 27 33 33 41 42 40 40 44 43 46 50 51 53 53 53 59 60 63 66 66 67 73 73 76 77 77 77 77 78 76 78 75 75 76 76 77 75
24 20 19 19 21 20 20 23 24 29 33 35 43 43 44 42 43 47 50 52 52 53 56 59 61 60 63 69 73 74 76 78 78 78 79 76 76 76 75 74 76 75 74 75
21 19 19 17 16 17 19 17 20 27 30 30 33 41 45 44 44 45 46 51 51 52 54 59 61 62 64 67 71 74 76 77 77 78 78 78 76 75 73 74 71 73 70 71
19 19 18 18 15 15 17 16 16 17 25 25 33 29 46 44 42 44 45 47 48 51 54 57 59 62 63 67 70 74 76 77 77 76 76 75 71 67 72 72 71 70 70 71
15 15 16 18 17 16 16 16 15 16 18 20 24 28 41 43 42 42 43 44 46 49 51 53 56 60 62 66 68 73 76 77 75 74 73 70 71 67 69 69 70 72 71 71
14 12 10 11 13 15 15 23 20 18 18 20 23 28 37 46 48 43 44 44 47 47 50 52 55 59 61 64 67 71 74 75 74 73 72 70 69 69 68 69 68 67 68 68
13 11 14 14 15 17 17 23 23 22 22 21 23 24 37 40 41 46 51 54 46 48 51 53 54 57 62 65 67 71 73 73 73 71 70 68 68 70 70 70 69 69 66 68
12 12 17 16 17 19 19 22 22 27 21 20 26 28 34 31 39 49 50 49 46 47 53 55 58 59 63 65 69 69 72 72 72 71 71 71 71 69 70 71 68 67 67 67
15 18 18 15 17 19 22 22 19 20 19 17 22 27 28 30 30 29 34 33 45 46 48 53 57 61 64 65 68 70 72 73 72 70 73 72 72 71 71 71 71 67 71 65
20 23 16 15 18 19 21 22 19 19 27 24 20 23 24 38 33 31 30 31 38 48 49 50 55 61 66 66 68 69 71 72 70 70 70 70 71 70 71 70 70 70 70 70
18 22 20 18 19 18 19 21 21 18 20 20 20 26 35 40 36 31 32 35 36 39 50 53 56 62 67 65 66 66 68 70 69 69 70 69 67 67 69 69 69 69 71 71
18 18 22 19 18 17 17 22 26 25 31 28 28 24 30 31 30 30 34 34 39 44 49 56 56 62 66 65 64 63 64 65 66 68 70 69 69 68 69 69 68 69 69 70
21 22 22 22 17 19 19 21 20 21 23 35 26 26 38 31 32 35 35 39 51 53 59 60 58 60 65 65 65 62 61 61 62 66 65 68 69 68 69 69 69 69 69 68
32 18 28 15 24 22 23 19 17 17 27 27 26 31 34 35 38 45 43 45 47 56 56 61 61 61 64 65 65 64 60 59 60 62 64 68 69 69 68 69 70 69 69 69
22 34 22 17 15 15 19 19 18 20 25 26 29 34 40 43 39 40 40 43 45 52 56 62 60 62 65 66 65 64 61 64 62 65 65 68 69 69 69 69 69 68 69 68
24 31 26 22 18 16 15 15 20 20 19 19 22 30 39 40 42 39 37 38 45 48 49 57 62 62 65 66 65 64 62 64 66 64 65 68 68 68 68 69 69 69 69 69
35 27 34 27 22 22 21 19 16 20 24 24 29 37 40 40 37 37 42 42 46 48 50 52 60 63 67 65 65 64 64 65 67 67 67 67 68 68 69 68 69 69 69 69
41 45 35 27 34 27 25 25 19 20 23 23 30 35 42 38 36 38 41 46 45 48 50 53 54 62 66 64 62 65 64 65 67 67 67 67 67 67 69 69 68 69 69 69
44 46 35 32 26 28 28 29 30 36 36 31 30 36 39 36 34 44 47 42 44 51 57 58 52 58 65 64 65 66 63 64 65 65 66 67 67 67 68 68 68 69 69 68
37 47 42 35 29 26 34 33 35 38 34 41 40 39 38 37 33 47 52 46 46 48 55 59 59 61 65 65 65 65 63 65 64 64 66 67 68 68 68 68 68 67 69 67
32 36 31 30 30 26 31 36 38 38 42 45 43 42 43 44 46 51 50 49 49 54 55 60 63 64 67 67 65 63 63 64 65 65 66 68 68 70 70 70 69 68 65 65
38 36 32 35 33 32 37 40 39 52 49 45 45 47 45 44 44 44 46 53 53 55 56 59 64 66 67 68 68 65 65 68 71 69 68 69 71 66 65 70 70 67 68 66
33 44 50 46 47 52 45 47 48 46 51 47 47 44 44 42 41 43 48 49 55 56 58 59 64 68 68 68 71 69 70 70 71 70 70 70 69 68 69 68 66 65 66 65
46 47 43 47 53 53 45 44 44 44 44 41 42 42 42 43 43 48 50 52 59 58 60 61 65 65 67 71 71 72 71 71 69 70 71 70 69 69 66 67 64 64 65 62
46 52 47 45 51 49 46 42 43 42 43 43 43 41 42 45 48 52 53 60 62 63 62 63 65 63 63 64 62 65 68 67 69 69 68 69 66 66 63 58 57 58 51 51
32 44 41 41 47 47 45 42 40 40 39 42 45 43 42 45 50 54 60 62 63 64 64 62 64 63 61 65 65 66 65 68 67 66 63 62 62 59 59 58 53 46 45 43

GFSCGP_sfc_dewp_003.txt.gz
Dewpoint
20 28 28 25 21 20 29 28 35 37 34 35 40 48 49 50 51 51 54 56 57 58 63 64 64 65 66 68 69 70 68 73 73 73 73 72 71 72 73 73 73 72 72 72
21 28 29 27 23 22 22 34 37 37 36 38 39 44 46 46 49 51 53 55 56 57 63 64 64 64 66 67 71 72 72 73 74 74 74 73 73 73 73 74 72 71 70 71
19 28 29 25 19 19 20 21 32 37 39 38 41 41 48 47 48 50 53 54 55 57 59 63 65 64 66 69 71 72 73 74 74 72 74 73 71 71 69 70 70 66 64 65
21 24 23 19 18 19 18 21 19 30 37 36 41 39 46 46 44 47 51 52 53 56 57 59 59 61 66 69 71 73 73 73 74 73 72 68 65 58 66 67 66 65 65 65
21 21 20 17 17 19 16 20 17 18 29 28 33 31 41 45 43 43 47 51 52 55 57 58 59 62 65 68 70 71 73 74 70 64 66 62 58 61 64 65 64 61 63 66
19 20 17 18 19 19 20 19 19 16 18 20 24 29 43 43 44 42 44 47 50 53 56 58 59 62 66 67 70 73 72 68 67 63 61 59 58 60 61 63 61 62 62 63
17 15 14 13 15 17 17 27 24 24 21 21 21 21 41 43 43 43 43 46 48 51 54 57 58 61 65 66 69 73 69 68 66 64 64 62 61 61 60 61 64 61 61 64
17 13 13 13 13 15 17 19 28 24 24 23 24 25 33 43 45 46 44 44 45 50 52 55 57 59 64 65 69 70 68 69 66 66 63 62 61 61 64 66 64 60 61 63
15 16 17 15 16 19 20 23 23 23 25 23 26 31 38 44 44 46 46 45 43 47 51 52 55 58 63 64 69 69 69 69 68 67 65 63 63 63 65 64 62 62 65 61
17 19 17 16 16 16 23 23 24 24 24 23 23 33 33 36 38 44 47 45 46 46 51 53 54 57 63 64 68 69 70 68 68 68 67 66 66 64 64 63 62 63 62 64
15 18 19 17 17 19 23 22 28 25 25 20 22 30 41 40 38 34 32 35 43 47 47 53 55 59 63 64 68 69 70 69 68 68 66 66 65 64 65 63 63 64 65 65
14 22 21 16 21 20 20 20 30 29 27 29 30 31 36 39 36 38 40 41 41 46 47 52 57 61 63 64 68 68 69 68 67 67 67 62 60 62 64 63 63 63 62 63
17 18 19 25 17 18 17 20 24 28 25 26 30 30 39 35 34 39 39 43 45 44 47 51 58 61 64 64 66 67 67 67 65 66 65 63 63 62 62 63 63 63 62 62
36 21 26 21 25 20 20 20 23 20 23 23 29 32 34 39 44 41 42 42 49 50 59 53 59 63 64 64 64 64 64 64 64 64 64 64 64 64 64 64 64 64 63 63
24 28 26 22 20 18 21 21 20 21 23 27 25 37 37 38 38 40 39 38 42 52 57 59 57 64 65 64 63 64 61 63 61 62 62 63 65 65 65 65 65 64 63 64
27 32 28 26 24 18 17 19 24 24 21 20 22 26 41 36 43 43 39 40 41 45 46 61 61 61 64 65 62 63 60 61 61 61 62 66 66 66 65 64 65 64 63 64
31 33 29 22 26 25 25 25 24 23 23 23 23 33 43 43 44 42 40 38 41 45 47 47 59 62 63 64 62 60 61 64 61 62 64 64 64 65 65 65 66 66 65 62
41 39 34 27 37 25 29 30 30 36 39 38 37 40 41 39 37 38 39 39 41 42 44 46 49 64 63 63 63 64 65 64 62 64 64 64 65 65 65 65 65 65 63 62
45 43 41 32 27 28 32 30 37 36 41 40 41 41 37 39 47 46 49 44 45 47 51 52 52 66 63 63 61 64 64 61 64 64 64 65 64 64 65 66 65 65 64 63
43 48 45 43 36 33 31 38 40 42 39 43 43 44 44 39 46 48 47 48 47 49 52 53 56 65 63 62 61 65 64 63 63 64 64 65 65 65 65 66 65 64 63 63
39 42 38 41 40 38 42 43 39 39 41 44 43 41 46 44 45 47 47 45 47 47 52 54 58 64 63 63 64 64 63 64 64 64 65 66 66 66 66 66 65 63 62 59
41 40 37 41 36 34 46 48 45 48 50 49 48 48 46 47 45 43 42 42 48 48 54 56 63 66 67 64 65 65 64 64 64 64 65 66 66 66 67 64 64 63 63 60
45 47 48 48 46 52 52 48 47 49 48 46 45 45 46 45 45 46 45 43 48 53 55 60 65 66 66 68 65 64 62 58 58 65 65 66 67 64 64 62 62 62 61 61
48 51 49 47 51 50 53 50 49 51 49 50 50 47 48 46 47 47 50 51 52 56 56 63 64 60 59 61 60 60 60 61 60 60 61 64 64 63 62 62 61 59 57 57
49 52 48 51 53 51 52 51 50 49 50 50 48 48 46 47 49 52 55 62 61 62 62 62 60 59 61 63 62 61 60 60 57 57 64 64 65 61 55 52 53 57 49 50
48 49 50 49 53 54 52 52 44 41 41 41 41 44 47 48 52 59 62 62 62 60 60 60 60 62 62 61 60 61 61 61 63 64 62 61 61 58 56 52 49 45 46 43

GFSCGP_sfc_dewp_006.txt.gz
Dewpoint
16 18 20 26 26 24 27 35 34 35 34 48 49 50 52 53 54 54 55 57 57 58 59 60 61 63 65 67 67 67 68 71 72 72 71 71 70 71 71 72 72 72 72 72
16 20 25 29 30 26 24 30 35 38 36 38 49 50 51 53 54 55 56 58 58 61 60 61 63 65 66 66 67 69 69 72 72 72 71 71 71 71 72 72 72 71 70 71
16 18 28 29 28 27 22 32 34 34 37 41 47 47 49 52 53 53 55 58 58 61 60 61 63 64 66 67 69 70 71 72 72 72 72 72 71 70 68 69 69 67 64 65
16 17 22 28 27 26 18 24 33 37 36 36 41 40 45 47 48 49 52 55 57 60 62 63 63 63 65 68 70 70 72 72 72 72 72 69 66 60 65 66 65 63 63 65
15 18 19 21 25 23 19 21 21 38 35 35 40 39 42 45 43 44 50 54 55 59 62 63 63 63 66 68 70 71 72 73 73 71 71 64 59 61 65 65 63 62 62 64
14 21 22 22 22 20 20 18 20 25 27 28 35 34 36 43 42 42 45 53 53 57 61 63 64 63 67 68 70 72 71 71 67 65 61 57 60 60 62 62 60 61 60 65
17 15 18 21 17 18 17 15 14 15 17 16 20 36 34 44 42 41 44 52 53 56 58 61 61 62 67 68 69 71 71 69 63 61 59 58 59 59 59 59 61 61 64 63
12 12 16 17 14 13 15 15 18 15 21 18 23 20 21 43 44 43 44 51 52 55 56 58 59 60 65 67 68 70 69 67 63 61 61 61 61 59 59 62 63 58 60 63
15 15 18 16 15 14 14 18 22 22 32 24 24 27 38 42 43 42 43 47 49 53 56 57 58 60 64 66 68 70 67 65 64 62 63 61 61 63 64 64 61 60 63 62
13 11 15 15 17 18 14 19 19 22 18 18 23 26 31 43 43 44 44 44 45 51 55 56 58 60 64 64 68 70 67 65 64 64 62 61 62 63 63 63 61 63 61 62
11 16 12 20 16 14 22 21 21 22 23 19 19 24 34 42 44 45 46 45 46 49 52 54 57 58 63 64 67 69 68 66 64 65 64 64 64 63 63 62 62 62 62 64
13 14 11 11 18 17 22 21 23 22 18 24 23 26 37 39 40 44 45 47 47 46 50 53 55 57 61 63 67 68 68 67 66 66 66 65 65 64 63 62 62 62 63 62
14 14 12 13 16 19 17 20 27 24 25 23 24 28 37 34 37 37 37 40 42 48 49 53 53 56 60 62 67 68 68 67 67 68 66 63 61 61 62 62 62 62 62 61
31 15 12 11 18 20 17 19 24 23 22 23 26 28 33 37 37 40 40 41 45 49 49 53 54 55 60 62 65 67 68 68 67 67 66 62 59 60 62 62 62 62 62 61
15 14 23 19 17 23 17 17 23 21 21 20 21 28 32 40 39 40 41 44 45 45 54 51 55 58 60 62 65 67 67 68 66 66 64 63 61 61 62 62 62 62 63 62
22 18 22 16 21 17 14 20 21 23 24 29 25 33 36 40 42 41 40 41 42 46 52 57 56 59 61 62 65 66 66 67 66 65 64 64 63 63 63 63 63 63 63 62
25 23 22 17 22 23 21 24 22 25 36 27 23 25 39 40 40 40 40 39 40 41 45 52 61 61 63 63 64 64 65 66 65 64 64 64 65 64 63 63 63 63 62 62
29 25 25 21 20 18 22 31 34 37 39 40 32 38 38 41 42 41 40 39 38 39 40 42 49 59 64 65 65 64 64 64 64 64 63 64 64 64 63 63 63 63 63 63
41 39 37 24 19 22 30 34 37 34 38 44 41 40 39 41 43 44 41 41 40 41 45 47 50 57 63 64 64 62 64 64 63 63 63 64 63 63 62 62 63 63 63 62
37 41 40 40 25 22 35 44 43 41 37 42 44 43 40 41 41 43 47 45 47 49 49 51 52 64 64 63 62 62 63 63 63 63 63 63 63 62 62 63 64 63 63 63
38 40 37 39 36 34 42 47 43 34 36 46 43 43 43 43 44 45 45 45 48 49 51 53 61 64 63 62 62 61 62 62 63 63 63 63 63 62 62 64 64 63 63 60
45 43 42 41 34 32 47 45 45 46 46 46 46 47 48 48 48 48 46 41 41 45 49 54 58 63 63 62 62 63 61 62 62 61 60 61 62 65 65 65 64 62 61 60
45 47 47 48 46 50 51 48 51 50 45 47 46 47 46 46 49 51 49 50 46 47 49 54 58 65 64 64 63 60 59 61 61 59 59 61 58 59 62 63 63 61 59 58
49 51 49 48 50 53 52 51 50 51 51 51 50 51 49 48 50 49 52 55 59 60 58 64 63 62 61 61 60 59 60 60 59 59 58 61 58 58 62 62 61 60 58 56
49 49 50 50 52 51 50 49 49 50 52 51 49 49 50 50 58 61 60 60 61 60 60 61 61 60 59 59 59 59 60 59 58 59 59 58 58 61 58 55 54 55 49 52
48 47 48 47 52 50 50 52 49 44 46 48 45 40 41 45 52 61 60 60 59 59 59 60 61 61 59 58 58 59 60 58 57 56 57 60 61 58 54 51 49 46 44 43

GFSCGP_sfc_dewp_009.txt.gz
Dewpoint
16 14 17 17 26 25 28 34 41 42 43 49 49 50 52 55 55 55 56 57 57 58 59 61 64 64 64 66 68 68 69 71 71 71 70 70 71 71 71 71 72 72 71 71
13 15 17 20 29 25 22 27 35 37 45 47 49 50 50 52 53 54 54 55 56 57 58 60 62 63 64 65 66 66 67 70 71 71 70 70 70 70 70 71 72 71 71 71
10 12 21 26 28 28 24 24 30 35 40 49 49 49 51 53 53 53 54 55 56 57 58 59 61 62 64 65 66 67 67 70 71 71 71 71 70 69 68 69 69 68 69 69
14 15 18 27 27 28 26 26 29 35 36 40 47 43 46 51 52 54 55 56 57 59 58 59 61 63 64 65 66 67 69 71 71 71 70 69 68 66 64 66 67 65 63 64
14 16 17 21 25 27 25 25 23 33 35 40 41 40 44 49 49 51 53 54 57 59 59 59 61 62 64 65 68 68 70 71 71 71 71 69 64 62 64 64 64 62 62 64
12 17 18 18 20 25 28 21 20 29 33 34 41 36 37 46 48 50 51 52 57 58 60 60 61 62 63 66 68 70 70 71 71 71 70 67 61 62 63 62 61 59 61 62
18 14 16 23 21 23 19 16 16 24 30 32 33 36 36 44 48 49 49 50 55 57 61 61 62 62 63 66 68 70 70 70 71 69 66 63 59 61 62 61 59 61 62 63
12 10 15 17 19 19 17 16 17 12 20 23 27 35 37 39 45 47 48 48 53 55 60 62 63 62 63 66 67 69 70 70 68 65 61 57 59 59 59 59 61 60 62 62
13 12 16 18 16 18 17 15 16 15 29 22 23 26 29 39 41 44 44 44 52 54 58 61 62 62 63 65 67 68 70 70 67 62 59 58 59 59 59 61 62 58 60 62
13 10 14 16 17 17 14 18 17 19 17 20 21 23 26 33 41 44 43 44 50 53 56 59 62 62 64 66 67 68 69 69 67 61 59 60 60 61 62 63 61 60 62 61
13 12 12 15 16 14 21 18 19 20 22 17 18 23 32 32 42 43 43 44 48 52 56 57 59 60 61 65 66 67 69 68 66 62 62 61 61 62 63 62 61 61 62 61
13 13 10 10 16 18 15 18 18 16 18 23 21 22 30 36 44 44 44 44 47 50 54 56 57 59 59 62 64 67 68 67 66 63 63 61 62 62 62 62 61 61 61 62
15 11 9 10 13 19 17 21 21 22 25 26 23 25 35 37 41 45 46 47 47 47 52 55 56 57 58 61 63 66 68 67 66 65 64 63 63 63 62 62 62 61 61 62
29 13 10 9 11 16 17 20 25 21 21 22 25 24 33 34 37 39 43 46 48 47 48 52 54 56 57 59 62 65 68 68 67 66 64 64 64 64 63 62 62 61 62 61
15 12 14 11 11 17 17 18 23 21 20 20 22 26 32 35 36 39 40 42 44 47 47 49 52 53 56 58 62 65 67 68 67 66 64 64 64 64 63 63 62 61 62 62
20 14 19 14 16 14 14 16 19 23 25 23 23 27 32 35 40 40 38 40 43 46 48 50 52 54 55 57 61 64 67 68 68 67 65 65 64 63 62 62 62 62 61 62
21 18 17 12 18 20 20 19 21 27 28 26 24 26 37 40 40 40 40 41 43 46 53 53 53 56 58 59 61 64 67 68 68 67 66 64 64 63 63 62 62 61 61 62
32 19 21 12 21 18 19 33 29 37 39 41 38 31 37 38 40 41 41 41 42 43 47 54 57 57 61 61 62 65 67 68 67 66 65 65 65 64 63 62 62 61 62 62
37 27 30 23 19 24 35 38 37 29 37 42 41 43 40 42 41 40 43 43 41 41 42 44 50 57 60 63 64 65 66 66 66 65 64 65 64 64 62 62 61 61 63 62
39 39 34 33 21 23 37 43 47 45 35 41 42 43 41 40 37 40 47 43 45 45 47 48 50 53 60 61 65 64 64 64 64 64 64 64 64 63 62 62 62 62 63 63
41 41 37 36 37 37 45 47 47 34 35 46 44 43 42 41 43 43 43 45 47 47 49 51 52 57 60 63 63 62 63 63 64 64 64 63 64 64 63 63 63 63 62 61
44 42 44 42 35 34 45 46 41 44 45 45 46 47 47 48 48 47 51 48 47 46 45 48 52 57 63 62 62 61 61 62 63 62 60 59 61 61 61 61 60 61 62 61
43 47 46 45 41 46 51 48 50 49 46 47 46 48 48 49 49 51 52 52 53 55 58 58 54 57 62 62 62 60 60 61 61 61 59 59 60 60 61 59 57 58 61 59
48 50 47 48 47 49 50 50 50 50 49 49 49 48 48 52 55 52 53 58 59 60 61 62 62 61 60 60 61 60 60 60 60 59 59 59 59 58 58 59 59 60 60 58
48 50 48 48 51 50 48 50 52 51 51 48 45 49 49 46 45 49 53 56 58 59 59 61 59 59 58 59 59 60 60 61 60 60 61 59 58 58 57 54 54 57 52 53
48 48 48 47 52 50 48 50 49 42 42 43 40 39 39 40 42 48 56 59 59 59 59 59 58 57 58 59 59 60 60 60 59 58 59 59 58 58 56 52 49 45 44 43

GFSCGP_sfc_dewp_012.txt.gz
Dewpoint
14 16 16 22 25 36 35 41 41 44 45 47 49 50 55 56 55 56 56 58 59 59 61 62 64 66 66 68 70 70 70 71 71 71 71 71 71 72 72 72 73 73 72 72
16 14 18 22 27 28 35 37 39 40 46 47 51 50 54 56 55 56 56 57 57 58 59 61 63 65 65 66 69 69 70 71 71 71 71 71 71 71 72 72 72 73 72 72
12 14 19 26 28 24 25 29 35 38 46 49 50 49 50 55 55 56 56 57 57 58 58 60 62 64 64 65 67 68 69 70 71 71 71 71 71 70 70 71 71 71 71 71
12 13 19 24 28 28 25 26 28 39 42 39 46 37 49 50 52 53 54 55 56 57 58 59 61 63 64 65 66 68 68 69 70 71 71 70 70 69 68 68 70 69 68 68
18 16 16 23 25 27 25 28 30 37 38 41 45 37 40 51 51 51 53 53 55 56 57 58 60 62 63 65 66 67 68 69 70 71 71 70 69 67 64 66 68 66 65 65
20 18 17 16 23 28 26 19 26 31 35 34 39 39 36 48 50 50 52 54 55 56 58 59 60 62 62 64 66 66 68 69 70 71 71 70 69 65 64 65 65 63 62 64
18 13 16 21 19 25 20 20 19 23 31 31 35 40 37 43 49 50 50 53 55 57 59 59 60 61 63 64 66 67 68 68 70 71 71 70 68 64 64 64 64 61 62 64
16 10 14 17 18 19 20 20 20 15 21 29 37 39 40 41 43 49 50 52 53 56 59 59 60 61 62 64 66 67 68 68 70 71 70 69 67 63 64 64 62 61 63 64
14 12 16 16 19 16 17 17 19 18 22 20 26 28 31 35 36 45 48 51 52 55 58 60 61 61 62 64 65 67 68 69 70 70 70 66 64 61 62 62 62 62 64 63
14 11 13 13 17 19 16 19 16 18 16 19 22 25 26 34 37 38 45 48 50 53 57 60 61 62 63 63 65 67 68 69 69 69 68 65 62 61 61 61 62 62 62 64
14 13 11 15 14 12 18 18 19 19 19 16 16 22 29 30 35 38 42 47 48 51 55 59 62 63 63 63 64 66 68 69 69 68 66 63 60 60 61 62 63 62 62 63
14 13 12 10 15 17 18 16 18 17 16 22 19 19 29 32 35 43 43 46 46 50 55 57 61 62 63 63 64 66 67 68 69 68 66 63 61 62 62 63 63 63 63 63
16 12 10 10 10 19 15 20 18 20 21 23 20 21 32 36 39 45 45 46 49 53 56 57 59 61 62 63 64 66 67 67 69 68 64 63 62 62 63 63 63 63 63 63
32 12 12 12 12 14 19 20 22 18 20 20 25 22 27 35 39 44 47 48 48 52 54 57 58 59 61 61 63 66 66 68 68 67 65 64 63 62 63 64 64 63 62 62
15 14 13 14 13 17 17 19 23 21 21 19 20 26 26 34 37 41 46 50 50 49 50 55 57 58 60 61 62 64 66 68 68 66 65 64 64 64 64 64 64 63 62 62
24 15 15 13 12 14 13 14 24 24 25 25 25 27 31 36 43 41 44 47 48 49 49 50 55 57 58 60 61 63 66 67 69 67 66 66 65 65 65 65 65 64 62 63
26 18 17 14 15 15 15 13 16 22 26 24 25 25 34 39 40 41 43 45 46 48 50 51 53 55 57 58 61 63 65 68 69 68 67 66 64 65 65 65 64 65 63 63
37 25 20 16 20 16 16 24 19 21 34 35 37 32 37 38 41 44 46 44 45 48 52 52 53 56 58 59 60 63 66 68 69 68 67 65 64 64 64 64 65 64 62 62
41 30 23 19 17 22 37 42 38 34 36 45 41 43 40 43 43 43 45 47 46 50 52 55 55 55 58 61 63 64 67 68 68 67 66 65 65 64 65 65 64 64 64 64
42 41 37 29 20 25 36 45 48 48 34 45 46 43 42 44 36 42 48 46 46 48 50 49 51 53 56 60 64 65 66 66 67 66 66 66 66 66 65 65 64 64 64 64
41 44 40 36 35 37 46 47 49 34 35 46 46 45 44 43 44 46 48 48 48 49 51 54 54 56 60 63 65 64 64 65 65 65 65 66 66 65 64 64 65 64 64 62
42 41 43 43 35 34 46 47 39 45 49 47 48 49 48 48 50 52 53 55 56 57 58 59 57 57 63 64 64 64 63 64 64 64 64 64 64 65 64 62 63 63 62 61
43 47 45 45 41 47 50 48 50 49 47 48 50 53 52 50 50 52 54 57 58 59 61 62 62 62 62 63 63 62 62 63 62 61 61 61 61 62 62 61 61 61 61 61
48 49 46 47 48 51 51 51 51 51 49 50 49 48 47 48 50 52 55 57 58 59 60 61 60 60 59 60 61 61 62 62 60 59 59 59 59 60 61 61 59 60 60 60
47 49 48 48 50 50 50 52 53 50 48 45 46 45 46 46 47 51 54 59 59 59 60 60 59 59 60 60 60 61 61 61 60 59 59 59 60 60 58 51 54 59 56 57
46 48 47 45 50 49 48 50 50 47 46 47 45 44 43 43 45 48 47 53 59 59 60 58 58 59 59 60 60 61 62 62 61 60 60 59 59 59 55 54 52 45 44 44

GFSCGP_sfc_dewp_015.txt.gz
Dewpoint
21 14 12 20 33 33 36 39 39 45 48 47 47 47 53 57 57 57 59 61 61 62 64 66 67 68 69 70 71 72 73 75 74 73 73 73 71 75 74 77 74 75 75 75
18 13 17 21 23 34 39 38 39 44 48 46 47 47 52 55 57 57 58 60 61 62 63 65 66 67 68 69 71 72 73 75 75 73 73 73 73 73 73 74 75 75 75 75
14 10 18 22 23 26 37 39 40 39 45 48 48 44 49 54 56 57 57 57 59 60 61 63 64 66 67 68 70 72 74 75 75 75 74 74 74 74 73 73 73 73 74 74
13 14 15 19 22 24 27 36 41 41 41 38 45 36 47 50 55 56 56 56 57 58 60 60 62 64 66 67 69 72 73 74 74 75 74 74 71 70 71 71 71 73 74 73
20 14 17 18 20 28 27 31 36 40 40 40 45 39 38 51 51 53 55 55 56 56 58 58 60 63 65 66 67 69 73 74 74 75 75 73 73 71 71 70 73 74 73 72
23 18 14 18 23 28 29 30 33 39 37 35 37 39 33 46 50 50 52 55 56 56 57 58 60 62 64 66 67 68 72 74 74 74 74 74 74 73 71 69 68 70 69 68
24 19 17 16 17 28 26 25 25 27 31 26 32 41 38 40 46 48 48 53 54 55 56 58 60 61 64 66 67 68 72 73 73 73 73 74 74 74 73 71 68 69 67 65
23 19 19 17 15 22 25 23 23 26 25 24 36 35 36 42 41 47 50 51 53 55 57 58 62 63 64 65 68 69 71 72 72 72 74 75 75 72 71 71 68 67 67 65
23 22 16 16 18 22 25 24 23 23 24 24 28 38 37 40 41 43 46 50 52 54 56 58 60 61 64 66 68 69 71 72 73 72 74 74 75 74 72 71 70 68 68 64
24 20 15 12 17 20 21 22 19 22 27 24 23 28 23 37 40 42 44 47 50 54 56 57 60 62 64 65 68 69 71 72 72 71 73 73 73 72 72 71 68 68 68 67
23 22 17 16 16 12 18 19 23 21 23 23 21 22 35 37 41 39 42 45 48 53 55 58 61 63 65 65 66 67 69 71 71 72 73 74 72 71 70 69 67 67 68 68
22 21 22 17 16 15 13 19 22 22 29 23 22 21 29 35 36 38 41 44 47 53 55 58 60 62 63 65 64 65 67 68 70 71 73 72 71 68 69 63 65 66 67 67
24 21 21 21 18 18 18 16 17 18 20 32 20 20 37 37 38 40 41 45 51 55 56 59 60 63 65 65 67 67 67 66 68 70 70 70 69 68 66 66 65 65 66 66
35 28 28 20 24 21 19 17 19 16 20 20 23 23 28 33 39 43 46 49 51 54 56 59 60 63 65 67 68 68 67 66 67 68 70 71 70 69 67 65 65 65 65 65
35 33 29 27 24 20 18 13 14 21 22 22 21 28 31 35 39 44 48 51 52 54 55 59 59 63 66 67 69 69 68 69 69 70 70 70 69 69 68 67 66 65 64 65
33 30 29 24 21 20 17 17 15 16 15 21 19 30 35 38 41 44 47 49 52 53 55 58 60 62 64 65 66 66 68 69 71 71 70 70 70 68 68 68 67 66 65 66
42 32 31 28 24 20 20 20 19 21 22 24 24 30 38 37 40 44 50 50 52 55 55 56 59 63 64 63 65 65 67 68 70 71 71 70 69 68 68 67 67 66 64 64
44 41 34 31 26 20 21 21 20 19 21 25 24 31 38 38 41 45 50 51 51 53 55 56 55 58 61 61 62 66 66 69 70 71 71 70 69 68 68 68 67 67 67 63
45 41 37 33 29 28 30 35 23 20 26 30 29 33 38 39 42 46 48 47 50 52 55 56 55 56 60 61 63 66 67 68 69 70 70 70 69 68 68 67 66 66 66 66
45 48 39 38 30 24 42 46 48 47 28 43 44 44 43 42 35 43 48 48 51 53 57 59 58 60 62 64 64 66 67 69 69 70 70 70 69 68 68 66 66 67 68 66
42 49 42 43 39 37 47 48 48 35 35 47 47 47 46 44 48 51 52 55 56 56 57 59 60 62 65 66 67 68 68 68 70 70 70 69 68 68 66 66 67 67 67 66
42 42 46 47 41 38 48 48 44 49 49 48 49 50 51 53 54 55 56 57 59 60 60 61 63 64 65 67 68 68 68 69 69 69 69 68 68 68 67 66 67 67 67 67
41 44 48 48 46 51 50 50 51 51 51 51 52 51 53 51 53 55 56 58 59 61 62 62 63 65 66 67 68 67 66 68 68 68 67 68 68 68 68 67 67 66 66 64
49 49 46 50 51 50 50 49 49 48 48 48 49 50 52 53 56 59 60 60 61 61 61 62 62 62 63 66 67 66 66 68 68 67 67 67 67 66 66 64 63 62 61 60
49 50 48 49 50 52 51 50 49 47 46 46 47 47 47 48 51 55 60 61 62 62 62 63 63 63 63 64 65 66 67 67 66 66 65 66 65 65 61 57 60 60 62 57
45 49 48 44 51 52 50 50 49 48 47 46 47 47 49 49 50 52 55 58 60 62 62 62 63 63 63 64 65 66 66 65 65 63 62 61 60 59 57 56 54 44 44 44

GFSCGP_sfc_dewp_021.txt.gz
Dewpoint
18 13 13 17 22 25 28 29 28 29 32 36 39 39 43 47 47 45 44 49 50 52 55 58 60 60 61 64 67 69 72 76 72 70 71 71 69 69 68 69 72 75 74 74
15 12 12 16 20 22 25 28 29 29 33 34 37 37 42 46 48 48 46 47 49 50 53 57 60 60 62 65 68 72 74 77 75 72 73 71 70 65 66 71 76 73 72 74
9 8 10 13 18 21 23 26 28 27 34 37 37 38 38 42 47 49 48 47 48 49 50 54 58 61 62 64 68 73 76 77 77 77 74 73 72 69 67 65 67 72 72 72
10 8 7 10 15 19 22 25 26 27 38 37 35 33 39 39 41 46 49 49 47 49 50 51 56 60 61 64 67 73 76 78 77 78 74 76 70 66 64 65 65 66 68 69
15 10 9 10 11 18 21 26 28 27 28 34 33 31 35 38 38 40 45 48 48 47 49 50 53 58 61 63 65 69 76 78 78 78 77 72 73 66 65 64 73 73 74 69
15 13 10 7 10 14 18 25 27 26 27 30 33 34 33 37 38 38 40 46 49 48 49 52 53 56 58 61 64 66 75 78 79 78 78 78 77 73 67 68 67 65 66 67
19 15 9 8 10 14 17 21 24 24 24 24 33 31 41 34 37 37 37 39 46 50 48 50 53 54 58 62 64 66 74 78 79 78 77 77 78 77 75 73 67 68 63 64
19 17 16 10 10 13 16 18 23 27 23 23 28 31 32 37 34 36 36 34 39 49 50 49 52 54 56 61 67 69 73 77 78 78 78 79 79 72 71 73 67 63 61 63
20 21 17 13 11 9 14 18 20 22 24 23 24 29 31 35 34 35 35 33 33 45 49 49 50 51 54 61 67 69 72 76 77 76 79 78 78 77 72 75 75 68 71 62
22 21 19 13 13 9 10 16 20 23 29 28 24 27 27 35 35 33 33 31 33 37 46 48 49 52 55 57 63 68 72 76 77 76 77 76 77 78 77 77 76 74 73 70
18 21 21 20 18 15 9 11 20 21 24 23 23 26 28 35 36 34 33 33 32 35 43 48 49 51 56 56 59 65 69 73 75 75 76 76 76 75 77 75 76 75 74 74
20 20 23 21 18 15 11 13 17 26 31 25 24 22 26 28 30 31 32 31 32 33 36 44 48 51 53 58 57 61 65 67 72 74 76 76 77 76 75 76 75 76 75 74
21 21 22 24 18 18 17 14 9 15 22 34 25 25 31 29 30 31 31 31 34 34 36 38 46 51 56 60 63 62 64 63 67 72 73 75 76 76 75 76 76 76 75 72
36 22 25 21 24 19 18 14 12 10 19 23 24 28 30 30 32 32 33 33 34 35 44 47 44 49 57 61 66 67 65 63 65 68 70 74 76 76 75 76 76 76 75 73
27 29 27 24 23 22 16 11 10 12 17 20 22 26 29 31 32 34 33 34 34 36 38 50 50 50 62 64 68 68 68 69 67 70 71 74 76 77 77 76 76 76 74 73
29 30 31 27 22 20 19 18 15 14 11 14 17 21 26 29 31 34 33 33 34 34 34 46 54 55 62 65 68 70 70 69 70 72 72 75 77 77 77 76 76 76 74 72
29 28 31 28 27 26 23 23 22 21 20 19 18 22 24 27 32 35 42 37 36 36 41 37 54 59 64 64 69 69 71 71 72 74 74 76 77 77 77 76 76 75 73 71
30 37 31 29 32 28 27 26 23 23 24 22 23 24 23 25 28 34 37 40 40 39 40 40 49 56 61 62 64 69 68 73 74 74 75 76 77 77 76 75 75 74 72 72
32 32 29 29 28 31 31 34 33 35 33 27 25 27 24 22 21 31 31 35 39 43 43 41 46 53 61 64 68 71 71 71 73 73 75 75 76 76 76 74 74 72 71 71
34 40 34 33 30 30 33 42 44 42 31 31 35 37 30 24 20 28 37 30 32 39 43 45 47 54 58 65 64 70 71 72 73 73 74 76 76 76 74 73 73 73 71 69
27 32 32 33 33 30 45 42 43 37 37 51 49 47 46 42 31 33 34 37 39 45 49 55 57 57 67 68 68 71 70 71 71 71 71 74 74 75 74 73 73 71 69 69
28 31 28 33 33 32 46 43 41 52 53 52 52 49 47 49 42 33 51 52 52 52 53 56 58 62 65 70 72 72 72 73 74 73 73 74 75 72 71 73 72 70 70 68
28 32 30 32 32 52 50 51 51 51 52 53 53 51 49 47 48 52 55 56 57 58 59 59 63 67 67 71 73 72 76 76 74 74 74 74 73 72 73 72 69 67 68 66
35 35 36 46 50 51 49 49 50 50 50 53 52 52 51 54 56 57 58 58 58 59 61 63 65 66 68 73 74 74 74 74 74 73 72 71 70 70 70 68 68 67 67 66
50 52 42 49 51 50 50 50 49 49 49 51 56 57 57 57 58 59 59 59 58 59 60 62 64 65 68 70 71 71 72 73 71 70 69 69 67 68 66 60 63 67 61 60
50 50 49 50 50 51 50 49 49 48 49 50 49 51 53 55 57 57 60 62 59 59 60 61 65 67 68 70 70 71 71 71 70 69 68 67 66 65 64 62 58 45 46 44

GFSCGP_sfc_dewp_024.txt.gz
Dewpoint
24 19 17 16 19 22 21 24 25 29 36 32 39 51 52 51 43 39 44 46 48 51 54 57 58 60 62 65 69 71 73 76 76 75 73 73 73 74 73 74 73 75 77 77
17 17 15 15 17 20 22 24 27 29 39 38 34 45 49 47 45 42 42 45 47 49 52 57 60 60 62 66 69 72 73 77 76 74 75 73 72 72 71 72 76 75 76 77
15 13 10 9 15 20 22 23 27 29 32 33 32 33 35 42 45 45 44 44 45 48 49 56 59 60 62 65 70 72 74 76 75 77 75 75 76 77 73 74 73 74 76 76
16 12 10 7 11 18 21 22 24 25 30 31 36 30 41 40 45 44 43 44 44 47 49 50 56 61 61 65 69 73 75 75 76 75 76 75 71 72 72 74 73 74 75 74
17 11 8 7 8 16 21 23 23 23 26 34 39 34 38 42 43 44 43 43 43 46 47 48 53 59 61 64 67 72 75 76 76 77 76 75 75 70 72 72 75 76 76 75
15 14 8 7 6 10 18 20 22 22 25 29 35 35 37 40 43 42 43 44 47 46 48 49 52 58 61 63 66 69 75 76 76 77 76 76 75 73 73 74 72 72 72 73
18 14 12 7 7 8 10 15 20 22 24 24 31 37 40 40 41 40 43 45 46 48 48 51 52 55 61 63 65 69 74 76 77 76 77 76 77 76 76 78 71 70 68 69
19 16 13 12 11 9 9 12 20 25 23 23 26 26 36 42 41 42 45 46 43 47 50 52 55 55 61 63 66 68 74 76 77 76 77 78 77 76 74 75 73 70 69 69
19 19 16 13 9 8 10 12 12 16 22 22 23 27 29 39 38 43 41 39 38 47 49 51 54 56 58 63 66 68 74 76 77 77 77 78 77 76 74 76 75 73 72 74
20 21 18 15 14 9 9 12 11 14 23 26 24 30 31 40 43 43 39 38 36 42 47 50 50 55 58 61 65 68 72 75 76 77 77 76 77 76 75 76 76 73 76 74
16 22 19 20 19 16 11 9 11 12 18 22 25 27 33 39 43 42 40 39 37 34 44 49 51 53 58 60 63 67 69 74 76 76 77 77 77 77 76 75 75 74 75 74
17 17 22 18 19 16 13 13 13 16 28 23 25 26 27 34 38 41 39 39 37 39 37 45 50 53 55 58 60 64 67 69 74 75 76 77 77 77 76 75 75 75 74 76
22 18 22 20 16 19 17 15 10 9 12 30 24 25 32 39 36 38 38 38 43 45 48 48 47 53 56 57 61 62 65 66 71 74 74 76 76 76 76 76 75 75 75 74
32 19 26 18 24 21 23 17 15 10 15 19 24 29 31 37 40 41 41 40 42 52 53 50 54 53 56 59 61 62 63 65 68 72 73 74 76 76 75 76 76 75 76 74
23 31 27 21 18 21 20 17 15 18 21 20 20 28 32 33 39 41 43 45 45 50 51 58 52 59 60 61 63 63 64 66 67 70 72 74 76 76 76 75 76 75 76 75
28 31 30 24 18 19 21 17 15 16 16 17 18 21 28 33 36 40 40 38 44 47 48 56 60 61 65 64 65 64 65 66 68 69 71 73 75 76 76 76 76 76 76 75
31 27 34 28 23 22 21 24 22 16 16 16 19 25 31 31 33 39 51 46 45 44 46 48 58 61 64 66 67 66 66 69 69 71 71 73 74 76 76 76 75 76 75 75
34 36 32 29 32 26 26 24 22 21 21 18 22 26 28 30 32 33 39 42 47 47 45 51 43 56 63 61 64 70 67 70 72 72 73 74 75 76 76 76 75 75 76 75
30 35 28 29 26 26 25 26 25 24 29 29 25 30 28 29 28 34 33 35 41 44 50 50 43 40 60 61 66 70 71 70 71 72 75 74 76 76 76 76 75 76 75 74
24 39 33 30 28 28 33 27 33 37 33 37 41 39 36 39 37 39 39 34 35 37 41 49 46 42 49 64 64 70 70 72 71 73 73 76 77 77 76 76 76 76 74 72
30 33 30 30 30 27 43 39 40 38 40 49 48 48 46 45 48 54 50 50 38 44 41 47 61 61 65 66 67 71 71 72 73 74 75 77 76 77 77 76 75 74 73 72
32 30 30 35 34 32 41 41 41 49 52 50 50 49 50 51 51 50 50 51 53 58 50 55 63 70 70 70 73 73 73 75 76 76 75 76 77 75 75 75 73 73 72 70
29 30 31 37 36 52 50 52 52 51 52 51 50 48 49 48 49 46 55 57 53 57 61 58 66 73 73 77 75 74 76 76 75 75 75 76 76 75 75 73 72 70 70 67
36 38 29 40 47 49 49 51 50 50 51 55 55 54 53 50 54 57 58 58 59 64 65 68 69 70 72 75 75 76 75 76 75 76 75 74 72 71 71 69 68 68 68 67
51 50 43 38 51 50 49 49 49 51 55 57 57 60 59 60 60 61 61 64 64 66 67 70 71 71 74 75 75 75 75 75 74 72 72 71 70 69 64 57 60 67 59 61
49 51 50 52 54 53 52 50 50 50 51 53 54 56 57 58 59 60 61 63 63 64 66 66 67 69 71 72 72 74 74 73 71 69 68 68 68 66 62 59 56 46 46 45

GFSCGP_sfc_dewp_027.txt.gz
Dewpoint
22 20 20 18 16 17 19 20 21 24 33 34 42 43 42 42 45 46 49 50 51 53 54 57 58 61 63 65 68 66 68 72 71 71 72 72 71 72 72 73 73 73 73 73
20 17 22 20 19 16 17 19 21 23 33 37 44 45 44 41 42 45 46 49 50 52 53 56 57 59 62 65 67 67 69 73 71 71 72 71 70 72 71 71 71 72 73 73
19 21 23 19 16 17 17 18 20 25 36 38 43 47 44 41 44 46 46 48 50 51 52 55 56 58 61 64 68 68 70 73 72 73 73 73 73 73 72 70 72 73 74 74
19 20 18 17 14 14 15 19 21 22 32 33 41 39 46 44 44 46 43 45 46 49 51 54 56 58 60 64 68 68 71 73 72 73 71 70 69 69 70 70 69 73 73 73
17 20 17 13 11 10 14 21 21 22 22 38 38 35 39 46 45 45 44 43 44 47 49 53 57 57 60 64 66 70 70 73 71 71 72 71 71 69 68 68 71 72 72 72
16 19 18 14 12 8 11 16 20 21 22 29 35 34 35 38 43 46 47 45 43 45 47 51 55 58 59 63 67 70 70 71 73 70 72 72 72 69 66 70 71 71 70 70
21 15 15 16 10 8 7 10 15 19 20 20 35 35 37 37 42 45 44 45 45 45 46 47 54 57 59 62 65 70 71 71 72 73 73 73 73 71 69 70 68 69 68 69
21 18 15 15 10 8 5 5 13 17 19 19 25 33 36 39 41 45 44 45 44 47 46 47 50 55 59 60 65 70 71 71 73 73 73 73 72 74 71 71 69 66 68 67
20 20 20 15 14 8 11 6 7 11 18 22 22 25 30 39 41 42 42 41 42 44 48 48 49 53 58 60 64 67 72 72 73 74 73 73 73 72 74 72 72 69 67 68
18 22 21 20 15 13 8 12 6 6 8 14 17 23 30 37 40 42 42 40 42 49 48 49 49 52 58 60 63 66 72 72 73 72 74 74 74 73 73 73 71 71 68 70
14 16 20 21 16 12 12 8 9 8 10 12 16 19 29 42 42 42 42 42 43 44 47 48 51 52 58 60 62 66 71 72 73 74 73 74 75 74 73 73 72 71 70 71
16 15 16 18 20 15 13 8 9 13 15 18 14 16 27 26 43 42 42 41 41 41 44 48 51 53 57 60 61 65 71 72 73 74 74 73 74 75 74 72 72 73 70 72
19 16 15 16 16 17 13 14 8 7 13 14 20 15 20 23 42 43 39 42 44 44 44 49 49 53 56 60 61 64 68 72 73 74 74 74 74 74 74 73 72 73 71 71
43 17 14 14 16 21 22 17 14 9 9 7 9 12 26 32 38 40 40 40 37 46 42 48 49 52 55 58 62 63 65 70 73 74 74 74 74 74 74 74 73 74 73 71
22 23 19 16 19 21 19 20 15 13 9 13 8 14 20 25 38 40 40 40 36 45 47 49 49 52 54 56 60 62 65 65 71 73 73 73 74 74 74 74 74 72 73 73
31 27 23 21 17 16 15 18 19 14 15 15 17 19 28 28 41 43 43 37 40 43 51 50 52 53 54 55 58 60 63 65 66 71 72 72 73 74 74 74 74 74 72 73
31 28 31 22 24 20 14 15 17 23 19 18 16 17 25 27 35 40 46 41 32 39 49 51 52 57 55 56 58 60 62 63 65 67 70 71 72 73 74 74 74 74 73 74
29 28 28 24 30 25 26 22 21 22 27 21 22 25 29 30 32 35 35 37 36 41 43 48 53 57 61 59 59 60 61 63 64 66 68 71 72 73 74 74 73 73 74 73
27 27 26 29 25 28 28 29 29 25 26 32 25 25 26 28 30 30 40 36 32 38 32 44 51 56 60 63 62 61 62 64 64 66 67 70 71 72 74 74 74 73 73 73
24 24 28 30 26 23 31 31 31 38 35 46 46 46 46 42 38 44 52 50 50 44 39 37 45 47 60 60 65 64 62 65 65 65 68 70 71 72 74 74 74 73 74 73
30 33 28 31 26 28 34 36 32 35 40 51 50 49 49 47 50 51 51 49 52 51 46 42 46 46 52 61 66 66 64 64 67 69 71 72 73 74 74 74 74 74 73 72
39 37 31 32 31 29 47 41 37 50 52 51 50 49 49 49 49 49 50 50 50 55 59 54 49 55 60 63 67 67 68 68 70 73 73 75 75 75 75 74 74 72 71 71
35 39 43 38 42 50 51 53 55 55 52 51 50 56 48 49 52 60 59 58 58 60 67 71 71 73 74 72 67 69 73 74 74 74 75 75 75 75 74 72 71 70 69 68
45 49 46 46 47 48 48 55 56 59 60 59 60 61 60 60 61 60 61 64 66 67 67 69 70 71 72 74 74 74 74 74 73 74 73 72 71 71 70 70 70 68 67 67
48 48 48 48 52 52 53 53 56 59 59 57 57 57 57 58 58 61 62 63 66 67 69 71 72 72 73 73 74 74 73 73 73 71 70 70 68 63 59 53 58 65 57 63
48 46 48 49 52 53 51 52 57 56 56 56 55 55 56 57 57 59 60 64 65 66 68 68 69 70 71 72 72 71 72 71 70 68 69 66 64 62 60 56 53 46 45 45

GFSCGP_sfc_dewp_030.txt.gz
Dewpoint
23 19 19 23 20 18 17 18 19 21 25 41 39 39 42 51 53 54 54 55 55 55 56 57 63 64 63 66 67 68 67 68 68 71 71 71 70 71 71 70 71 72 73 74
19 18 21 23 21 18 16 15 16 20 23 38 42 39 40 47 50 52 53 53 54 55 55 57 60 62 63 65 66 67 68 69 69 69 70 70 70 71 71 71 72 72 72 73
14 18 21 22 21 19 16 14 15 19 24 41 42 43 44 43 46 49 51 52 53 53 53 55 57 61 62 62 66 66 68 70 69 71 71 71 71 71 71 70 71 71 72 73
16 20 20 19 20 20 16 17 16 19 23 31 39 36 44 44 41 43 48 50 51 53 53 55 56 60 61 63 65 65 68 71 70 71 70 69 69 68 69 70 71 71 73 73
22 21 20 19 19 21 17 18 19 19 21 29 39 37 39 44 44 43 45 48 50 51 52 53 56 57 61 62 64 66 67 71 71 71 70 69 69 69 69 69 69 71 72 72
21 22 21 19 20 20 18 14 15 21 21 28 26 36 36 39 43 44 46 46 49 50 52 52 55 56 59 62 64 66 67 70 71 71 70 69 69 69 68 68 70 71 71 71
23 21 18 20 18 16 14 10 10 11 13 17 28 34 33 38 44 44 44 45 46 49 50 52 54 55 58 61 64 66 68 69 70 71 70 69 69 69 68 68 70 70 69 69
21 21 19 16 17 16 10 7 9 10 15 17 22 30 33 37 42 46 45 46 44 46 48 51 53 56 57 60 64 67 67 67 69 69 71 71 70 70 70 69 69 70 69 68
20 20 24 21 17 16 13 7 7 10 24 19 21 28 31 39 40 45 45 46 45 44 46 49 53 55 57 60 64 67 68 67 70 70 69 69 71 71 72 71 68 68 67 67
16 19 21 21 19 16 12 10 10 7 4 6 14 21 24 30 39 42 45 45 45 45 44 46 48 54 57 59 63 67 68 67 69 70 70 70 70 70 72 72 70 67 67 67
13 15 15 23 20 17 14 8 19 5 6 5 9 10 21 25 35 40 44 44 44 44 46 46 47 51 55 59 62 67 68 68 69 70 70 70 71 70 70 73 71 70 67 68
16 12 12 13 18 21 18 13 9 9 8 14 7 9 21 22 33 42 42 43 43 44 46 48 47 48 53 58 60 65 69 68 69 71 71 71 71 71 71 70 72 71 70 68
33 15 11 11 12 14 17 15 11 11 12 9 14 11 19 20 37 43 43 43 45 45 46 47 49 49 52 57 59 64 68 69 70 71 71 72 72 72 72 71 70 72 70 70
34 29 16 14 14 15 16 16 13 7 8 8 11 14 14 23 35 44 43 43 44 44 44 44 47 50 52 57 59 62 66 70 70 71 71 71 72 73 73 72 71 71 71 69
33 27 23 23 19 15 18 18 16 10 8 7 8 10 12 13 29 41 43 43 43 40 40 42 44 50 52 57 59 61 65 69 70 71 72 71 72 72 73 73 73 71 71 71
34 29 27 27 24 15 14 16 18 15 12 8 11 12 14 14 27 33 41 41 41 39 42 45 45 48 53 57 59 61 63 68 70 71 72 72 73 73 73 74 74 72 73 71
33 30 27 25 24 17 15 17 18 20 19 14 12 15 23 24 33 36 42 42 40 39 38 48 48 50 53 56 59 61 63 67 70 70 71 72 73 73 73 74 74 74 72 73
32 31 28 25 26 18 15 17 16 17 20 22 16 18 22 22 24 35 37 40 41 38 42 49 52 51 52 55 59 61 63 65 69 70 71 72 72 73 73 74 73 74 73 72
32 30 28 25 28 24 27 22 18 17 19 29 23 24 23 26 33 45 44 36 25 34 37 43 51 54 55 54 56 60 62 64 65 68 69 71 72 72 73 73 73 73 74 73
27 27 28 26 24 24 24 29 32 30 26 47 30 33 35 32 27 38 49 47 45 47 42 36 49 56 56 58 56 58 60 62 64 65 67 70 71 72 72 73 73 73 73 73
40 38 31 28 25 27 35 36 34 27 30 50 47 45 43 43 40 46 51 48 48 53 51 44 39 45 57 59 59 58 59 60 62 64 65 67 70 71 72 73 74 73 73 73
39 40 38 33 32 26 46 48 29 39 52 49 49 49 49 50 55 54 55 51 49 51 59 54 46 43 44 60 63 60 60 61 63 63 64 67 69 71 72 74 74 73 73 72
38 41 39 41 42 47 46 56 58 58 59 59 58 57 59 60 61 63 65 66 67 68 69 69 64 68 69 59 65 64 63 62 66 65 67 69 71 72 74 74 74 73 72 70
44 47 44 45 45 52 51 54 58 58 57 57 58 60 60 60 62 64 65 66 67 68 69 70 70 70 69 70 68 66 68 67 69 68 73 74 74 74 74 74 73 71 70 68
45 47 47 47 49 52 52 52 55 57 57 56 56 57 58 61 61 64 64 65 67 67 68 69 70 71 71 71 71 73 73 72 73 73 73 73 71 68 60 58 65 68 62 67
48 46 46 48 51 52 51 53 51 50 50 53 54 54 56 57 58 61 62 63 65 66 67 67 67 68 69 70 69 70 72 72 71 68 67 66 64 61 61 59 56 49 49 52

GFSCGP_sfc_dewp_033.txt.gz
Dewpoint
27 25 25 25 22 22 19 18 18 21 32 40 40 42 53 54 54 53 53 56 58 60 62 62 63 64 64 65 65 67 67 68 69 69 70 69 68 69 71 70 70 70 72 73
22 22 25 24 25 21 18 18 17 19 22 28 33 41 52 54 54 54 54 54 55 56 57 59 62 64 64 64 65 66 67 68 69 68 69 70 70 70 70 71 70 72 72 73
21 22 22 22 22 20 19 17 17 17 25 33 40 41 47 53 54 55 55 55 55 55 55 57 60 63 63 63 65 66 67 67 68 68 69 70 70 70 70 70 70 72 72 72
17 19 19 20 20 21 19 20 19 18 20 18 39 36 42 48 52 52 54 55 55 55 55 55 60 62 62 63 65 66 67 67 67 68 68 67 67 67 69 70 70 70 71 72
17 16 16 18 18 22 20 22 19 21 18 21 26 34 38 43 47 48 50 53 54 55 55 55 56 60 62 63 65 66 67 68 68 69 68 68 67 68 69 69 70 70 71 72
18 22 15 17 21 19 23 21 16 20 18 18 17 30 29 41 42 43 45 50 52 53 54 55 55 58 61 62 63 66 66 68 69 69 69 69 68 68 68 68 69 69 70 71
17 15 21 21 19 21 19 15 15 11 14 13 15 26 22 35 42 42 43 44 50 51 52 53 54 55 59 61 62 65 66 68 69 69 69 69 68 68 68 67 68 69 69 69
21 22 20 20 20 18 17 16 15 9 11 12 20 22 23 34 38 43 43 44 45 50 51 53 54 54 56 60 62 64 65 67 69 70 69 69 69 68 68 68 68 69 70 70
21 21 24 22 19 19 16 14 15 9 25 14 19 23 31 33 36 39 43 44 45 47 50 51 53 53 55 58 61 64 65 66 69 69 69 69 69 69 69 68 68 69 70 70
19 20 22 22 21 18 17 12 8 8 7 7 10 18 22 32 31 39 41 44 45 46 48 50 51 53 55 57 60 63 65 65 67 69 69 69 69 69 69 70 69 69 69 69
18 17 17 21 20 19 16 13 14 9 9 7 6 8 20 28 34 38 42 45 45 46 46 48 50 52 54 56 59 63 65 65 66 68 68 69 69 70 70 70 70 68 68 67
32 17 15 17 21 21 18 14 11 10 6 10 7 9 18 23 26 34 39 44 46 47 46 46 47 50 52 56 58 62 64 65 65 68 68 68 68 69 69 70 71 69 67 67
37 29 13 11 18 15 19 18 13 11 11 9 8 10 18 20 23 33 38 42 45 47 48 46 45 47 51 55 58 61 64 65 65 67 68 68 68 69 69 69 70 71 69 67
35 29 24 16 14 16 14 17 17 11 10 10 11 13 18 18 22 29 42 44 45 46 46 47 46 46 48 53 58 61 65 66 66 67 67 68 69 69 70 69 69 70 71 69
33 30 28 27 27 26 22 15 14 14 14 12 13 12 13 16 23 29 36 44 45 45 45 46 47 49 49 52 58 60 64 67 66 67 68 68 69 69 70 70 70 69 70 70
33 30 30 28 26 25 21 19 16 15 16 13 11 13 16 16 19 21 24 36 44 44 43 44 46 49 49 51 56 59 63 67 68 68 68 69 69 70 71 71 71 70 70 70
30 31 29 27 27 26 21 20 18 16 17 17 14 14 15 15 19 19 24 34 40 43 43 42 43 45 49 51 55 58 61 65 68 68 69 69 69 70 71 72 72 72 70 70
30 32 30 28 27 21 21 20 20 17 18 19 15 17 21 16 19 27 31 32 39 42 40 40 45 44 48 51 55 58 60 64 68 69 69 70 70 70 71 71 72 72 72 71
31 29 29 26 26 27 23 25 20 18 19 25 20 21 22 24 32 32 40 36 40 43 41 41 47 49 49 51 55 58 60 63 67 68 69 70 71 71 71 71 72 72 73 72
30 29 29 27 24 23 29 42 43 36 18 21 26 25 24 29 25 25 46 39 34 32 40 42 50 53 53 54 58 60 61 63 66 68 69 70 71 71 72 72 72 72 73 72
30 32 31 30 28 28 37 48 49 27 21 40 38 26 30 27 25 30 48 47 44 47 46 40 47 54 54 54 57 60 61 62 63 67 69 69 70 71 72 72 72 73 73 72
35 36 34 31 33 29 50 50 48 49 56 50 47 46 43 47 48 49 48 46 47 49 55 48 40 42 52 58 56 57 59 62 63 64 65 69 70 71 71 71 72 73 73 73
33 40 38 35 38 47 51 53 53 55 57 57 49 56 56 59 60 61 63 64 66 67 67 68 65 63 66 54 60 57 57 59 60 63 64 65 68 70 71 72 73 73 73 73
37 42 41 44 47 50 53 53 54 54 56 57 60 60 61 62 63 64 65 66 67 67 68 69 69 68 68 70 68 65 65 61 61 61 63 66 67 69 71 72 73 73 73 72
40 43 40 44 49 49 53 53 54 56 54 56 56 57 60 63 62 64 65 65 66 67 67 68 69 69 69 69 69 70 70 67 63 65 64 67 69 69 65 57 67 73 66 70
42 43 41 42 51 51 52 54 54 54 54 54 55 56 57 59 59 61 62 63 65 65 65 67 67 67 69 68 69 69 69 69 70 69 66 64 63 61 61 60 58 51 54 54

GFSCGP_sfc_dewp_036.txt.gz
Dewpoint
32 29 26 26 23 23 23 19 20 24 28 37 36 41 52 54 55 56 58 59 60 60 62 63 64 65 66 67 67 68 69 69 69 70 70 70 69 70 70 71 71 72 72 73
23 26 29 28 24 23 20 20 20 21 20 23 25 38 53 54 55 56 58 59 59 60 61 63 64 64 65 66 66 67 68 69 69 69 70 70 70 70 70 72 71 72 72 73
23 22 28 26 25 24 21 20 20 21 21 26 39 38 50 54 55 55 56 58 59 60 60 62 63 63 64 65 66 67 68 68 69 69 70 70 70 71 70 71 71 71 72 73
21 23 24 22 22 23 20 21 20 19 18 16 36 28 44 52 53 54 54 54 56 57 59 60 62 62 64 65 66 67 68 68 69 70 69 69 68 68 69 70 71 71 72 72
20 20 21 21 22 22 21 22 20 18 17 19 26 31 36 49 52 53 54 54 54 55 56 57 58 62 63 65 65 66 67 68 69 69 69 69 69 68 69 70 71 71 72 73
19 21 22 20 20 22 23 20 18 20 18 17 17 23 23 42 50 52 54 55 55 55 56 56 57 60 62 64 65 65 67 68 69 69 69 69 68 68 68 69 70 70 71 72
18 18 20 18 18 21 20 18 16 15 15 15 17 22 20 37 43 49 52 53 54 56 56 56 56 57 61 63 64 65 67 67 68 69 69 69 69 69 69 68 69 70 70 71
16 17 17 19 16 17 18 17 18 12 13 15 19 18 21 28 42 44 47 49 51 53 55 56 57 57 58 62 64 65 67 67 68 69 69 69 69 69 69 69 69 69 70 70
18 18 24 18 21 16 18 17 16 12 23 11 16 21 25 31 32 43 43 44 45 48 53 54 56 56 57 60 63 64 66 67 68 69 69 69 70 70 69 70 69 69 70 71
21 20 23 18 20 20 16 17 15 12 13 10 12 19 20 31 30 35 40 43 44 45 48 52 54 55 56 58 61 64 65 66 67 69 69 69 70 70 70 70 69 69 70 71
29 20 18 22 21 18 16 13 13 15 13 11 9 13 23 29 28 26 30 41 44 45 46 49 52 54 55 56 60 62 64 65 66 69 69 69 69 70 70 70 70 69 70 71
37 22 18 18 23 22 20 18 11 15 11 11 12 12 21 21 28 32 30 32 44 47 47 48 50 52 54 56 58 61 63 64 65 67 69 69 70 70 70 70 70 70 70 70
35 27 15 14 16 19 20 18 15 13 13 13 11 14 18 23 24 26 36 40 47 50 50 49 49 51 53 55 58 60 62 63 65 66 68 69 69 69 70 70 70 70 70 69
35 30 24 21 23 27 23 21 18 13 14 14 13 14 22 21 22 26 31 37 39 46 50 51 49 50 52 55 58 60 61 63 64 65 67 68 69 69 69 70 71 71 70 69
31 28 29 29 30 29 27 25 24 19 15 14 15 16 18 21 22 24 27 39 44 46 48 51 49 49 52 55 58 60 62 64 65 66 66 67 68 69 69 70 70 71 71 70
31 26 30 29 28 27 26 26 24 21 20 18 17 18 20 20 25 27 31 34 41 46 48 50 52 51 52 53 57 60 62 64 66 66 66 68 69 69 69 70 70 70 71 71
29 29 28 24 28 27 22 21 21 22 21 19 17 22 21 21 23 24 28 30 33 41 47 49 50 52 52 52 56 59 61 65 66 66 67 68 69 69 70 70 70 70 70 71
29 29 30 27 27 21 24 27 25 19 19 21 21 22 22 21 23 24 26 25 27 31 44 48 47 49 52 51 52 58 61 65 67 67 67 68 69 69 70 70 71 71 70 70
31 29 27 25 25 22 24 34 42 41 33 25 22 23 25 21 24 29 31 32 30 35 40 45 46 46 50 54 56 60 61 64 67 67 68 69 70 69 70 70 71 71 71 71
30 29 25 27 25 20 33 43 47 48 39 33 34 24 24 27 23 25 35 41 40 41 45 46 47 50 49 52 55 59 61 63 65 68 68 69 70 70 70 70 71 71 72 72
28 28 27 25 28 29 32 49 52 36 33 52 54 54 30 27 26 29 38 46 43 41 41 45 51 54 56 58 59 60 61 62 64 67 69 70 70 71 71 71 71 71 72 72
29 29 29 28 29 23 46 47 45 47 52 54 55 56 56 33 33 41 48 49 48 53 56 51 45 50 56 59 62 62 62 64 66 67 69 70 71 71 71 72 72 72 72 72
29 33 34 29 28 39 50 49 52 54 53 55 56 57 56 39 46 51 56 63 65 67 67 67 67 68 69 65 62 61 63 64 65 67 68 70 71 72 72 72 72 72 73 72
36 38 38 38 37 42 49 53 54 54 54 54 57 59 58 59 62 64 66 66 66 66 67 67 68 68 69 70 69 69 70 67 64 65 66 68 69 70 72 72 72 72 72 72
35 36 35 39 40 46 52 52 53 54 55 55 59 60 64 64 64 65 65 66 65 66 66 67 67 67 69 69 70 70 71 68 65 65 66 68 68 62 60 59 58 63 58 64
37 34 35 36 42 45 49 52 55 54 54 57 59 61 61 63 63 63 62 63 64 63 65 65 65 65 66 67 68 68 68 69 67 64 64 63 63 63 63 63 61 52 53 52

GFSCGP_sfc_dewp_039.txt.gz
Dewpoint
32 27 26 26 25 24 21 23 25 26 27 30 35 41 40 51 55 56 57 58 58 59 61 63 65 65 67 69 70 71 71 73 72 70 69 69 67 68 70 71 74 74 74 75
27 24 24 26 27 22 19 20 23 24 23 23 27 31 36 49 53 55 57 58 58 58 60 63 64 65 67 68 70 71 72 73 72 71 71 69 70 69 70 72 73 74 74 75
20 20 24 26 26 25 20 17 22 24 22 22 28 28 40 51 53 55 56 58 59 59 60 62 63 65 66 68 70 71 73 74 73 73 71 71 71 72 70 71 72 72 74 74
20 22 25 24 23 25 21 20 19 22 23 22 30 25 39 45 52 54 55 57 58 59 60 60 62 64 65 67 69 71 72 74 73 74 72 73 68 68 68 70 71 71 74 74
20 22 25 24 22 26 21 22 22 22 22 23 23 24 29 46 49 52 54 55 57 58 59 60 61 63 65 66 67 69 72 74 74 74 74 71 71 69 69 70 74 75 75 75
19 22 23 24 24 26 25 23 23 23 21 20 23 22 25 34 46 50 53 54 55 57 58 60 62 63 64 65 66 67 71 73 74 74 74 74 73 72 70 71 70 70 70 71
20 19 23 23 23 24 23 19 18 16 16 16 22 22 27 30 41 40 50 54 55 56 56 58 60 62 65 66 67 68 71 72 73 73 73 73 74 74 74 73 70 71 69 70
18 17 19 22 22 21 23 18 13 15 10 9 23 21 25 28 30 40 45 50 54 56 57 57 60 61 62 66 68 69 70 71 72 73 73 74 74 71 71 72 69 69 68 69
18 17 20 19 21 21 22 21 16 11 17 14 14 22 26 30 28 38 43 47 51 54 56 57 58 60 61 64 67 69 70 71 72 72 73 73 74 74 72 74 74 70 73 70
24 21 20 18 18 21 20 20 16 16 15 13 13 20 20 32 31 33 39 43 47 51 54 56 58 60 61 62 65 68 70 71 71 72 72 72 73 73 73 74 74 74 74 73
30 24 23 20 20 17 18 19 18 16 15 9 7 10 26 34 37 33 33 38 42 45 49 52 57 60 62 62 63 66 68 70 71 71 72 72 72 73 73 73 73 74 75 75
34 23 24 22 21 20 18 20 20 17 24 17 13 9 22 29 33 34 35 37 40 45 47 50 52 57 58 62 62 63 66 67 69 70 72 72 73 73 73 73 73 74 74 75
33 29 24 23 22 22 21 21 19 18 17 26 13 12 26 28 28 31 33 36 41 49 50 51 50 54 59 60 62 62 64 64 66 69 70 71 72 72 73 73 73 74 74 74
35 30 29 21 25 28 27 24 21 18 20 20 20 19 22 24 27 32 33 37 40 49 52 53 54 55 58 61 63 63 64 64 65 67 69 71 72 72 72 73 74 74 74 74
31 27 27 27 25 25 27 26 25 24 23 23 22 25 25 27 28 34 36 40 40 44 47 53 54 57 61 62 64 64 64 66 66 68 69 70 72 73 73 73 74 74 74 74
31 24 31 23 22 22 24 25 26 25 25 24 23 23 27 29 32 32 34 37 37 41 42 50 55 58 60 62 63 64 65 65 67 69 69 71 72 73 73 73 73 74 74 74
28 26 25 20 22 23 22 24 24 25 25 24 24 27 29 29 32 36 41 41 43 44 47 50 55 58 62 60 63 63 65 66 68 69 70 71 72 72 73 73 73 74 74 74
27 31 30 18 23 18 22 26 26 26 26 24 24 26 27 30 32 37 42 40 40 41 42 45 45 52 58 58 57 63 64 67 69 69 70 71 72 72 73 73 73 73 73 73
28 27 23 16 17 20 20 23 31 35 31 39 30 27 26 27 30 37 36 39 42 44 46 46 41 43 57 59 60 64 65 67 68 69 70 71 71 72 72 72 72 73 73 73
28 29 24 21 14 15 24 26 27 40 33 41 50 48 37 30 28 29 42 40 40 40 42 45 46 48 51 61 56 63 65 67 68 69 70 71 72 72 72 72 73 73 73 73
30 28 24 20 20 18 27 32 50 36 35 51 52 53 54 52 41 46 43 43 45 47 47 49 53 53 58 58 63 64 65 66 67 68 69 72 72 73 73 73 74 73 73 74
26 29 27 23 20 16 24 31 31 45 52 52 53 54 55 56 57 57 54 45 47 50 49 49 53 57 61 63 66 67 67 68 68 69 70 73 74 71 71 74 73 72 72 73
27 27 31 26 20 30 32 39 43 44 50 51 55 56 56 57 57 58 56 49 57 61 62 54 63 67 67 65 66 66 69 69 69 69 71 72 73 73 74 74 71 73 72 71
31 36 36 33 31 33 34 39 42 44 52 54 56 57 58 59 60 60 54 60 67 68 67 68 69 69 70 70 70 69 69 69 70 71 71 72 72 73 73 72 72 71 72 72
31 34 33 33 34 36 37 39 44 43 50 53 57 59 60 62 63 59 61 66 67 68 68 69 70 69 71 72 71 73 72 71 69 69 69 70 70 68 67 66 70 70 66 71
33 34 33 29 35 38 42 46 48 48 52 53 58 59 62 64 62 65 65 66 66 66 67 67 67 67 68 69 70 70 71 70 69 67 68 67 67 67 66 65 62 51 51 49

GFSCGP_sfc_dewp_042.txt.gz
Dewpoint
31 25 25 20 27 26 23 24 25 31 31 33 36 39 40 43 50 51 55 57 57 57 58 60 61 62 63 65 67 69 70 73 71 69 68 66 64 65 64 66 70 73 75 75
23 23 22 23 19 22 21 22 24 29 29 29 32 33 36 37 46 50 53 56 57 57 58 60 61 62 62 65 68 70 71 73 73 70 70 67 66 64 64 67 72 74 74 75
21 20 21 21 23 23 23 23 24 25 28 27 29 30 32 34 40 45 49 54 56 57 57 59 60 61 62 64 68 70 73 73 74 74 70 70 67 67 66 68 70 73 74 74
22 19 20 19 20 22 20 20 20 22 26 26 28 27 34 34 39 45 47 51 54 56 57 57 58 60 61 64 67 70 73 74 74 75 72 74 67 64 65 68 68 70 74 73
22 19 18 19 20 19 18 16 19 19 21 24 25 25 29 34 35 42 46 49 53 55 56 57 57 59 60 63 65 69 72 75 75 75 75 71 72 64 66 67 74 76 75 74
17 17 17 19 19 18 19 17 20 20 18 19 25 24 26 28 37 38 44 47 52 53 55 58 59 58 60 62 64 67 72 76 76 75 74 76 75 71 68 70 69 69 69 70
18 17 19 19 20 21 19 17 15 14 14 15 21 22 28 28 29 36 39 45 50 54 55 57 59 59 60 62 64 67 73 76 76 74 75 75 76 75 75 74 70 71 67 67
18 16 17 19 20 21 20 17 12 17 9 10 18 19 22 27 29 32 36 37 48 52 55 56 59 61 61 62 66 68 73 75 74 74 76 77 78 71 71 74 70 68 67 66
21 20 17 19 20 20 22 19 13 8 13 10 9 17 21 24 27 30 30 34 38 48 53 55 57 59 62 64 67 70 73 75 76 74 77 77 77 76 72 76 76 71 74 68
27 24 19 17 20 19 20 20 13 12 17 16 8 16 16 25 27 29 29 32 36 43 50 53 55 57 60 62 66 69 73 75 75 73 75 74 75 77 76 76 76 76 75 74
28 25 23 20 20 19 18 18 18 13 13 12 11 10 19 24 29 28 29 34 38 42 48 52 55 56 59 61 62 66 70 73 73 73 75 75 75 74 76 74 76 76 76 77
30 26 25 20 19 18 18 20 20 16 23 17 15 11 12 19 20 28 30 33 36 40 43 48 49 54 56 59 60 62 65 68 70 72 75 75 76 75 74 75 75 76 77 77
33 26 24 25 19 20 18 19 16 16 15 26 16 13 24 26 26 30 31 32 37 40 43 44 46 49 55 58 64 61 63 64 66 70 70 73 75 75 75 76 76 76 77 77
34 30 28 22 26 23 23 19 18 15 19 18 20 20 21 21 24 29 30 30 32 39 44 45 47 49 52 58 64 67 63 62 64 66 68 72 75 75 75 76 77 77 77 77
29 31 32 30 28 26 25 20 19 21 22 21 21 23 25 25 25 27 31 31 33 38 43 46 49 50 52 57 65 67 65 66 65 69 69 72 74 75 76 76 76 77 77 77
28 30 30 30 26 24 24 26 25 22 22 23 23 24 26 28 30 31 31 32 32 32 35 42 49 53 55 58 61 64 67 66 68 70 70 73 74 76 76 76 77 77 77 77
27 25 28 26 26 25 24 26 26 27 27 27 26 30 31 31 31 33 36 35 35 36 37 37 45 52 55 54 60 63 67 67 69 70 72 73 74 75 76 76 77 77 77 77
27 28 25 23 26 23 26 26 26 26 27 27 28 30 31 32 33 34 36 36 36 35 37 39 36 39 51 53 50 61 62 69 70 72 72 73 74 75 76 76 76 77 77 77
27 26 22 22 22 24 24 24 26 27 28 29 29 30 29 29 30 33 32 33 36 39 39 39 35 34 40 43 50 58 64 64 68 71 72 73 74 75 75 76 76 75 75 75
23 27 23 22 21 21 25 24 26 28 28 34 35 40 42 37 27 29 34 33 37 37 38 38 39 38 39 46 47 55 63 66 70 71 72 73 74 75 75 75 75 75 74 73
20 23 21 19 19 20 24 29 41 31 42 46 45 47 49 49 50 53 54 52 50 50 47 46 46 46 52 53 57 60 63 65 69 68 69 72 74 76 75 76 76 76 75 75
24 23 18 20 19 17 20 21 26 39 43 43 45 46 48 50 51 51 52 55 57 55 53 45 49 50 54 62 63 68 69 70 71 70 69 72 74 72 71 76 76 76 76 76
22 21 20 22 18 27 25 26 32 36 39 41 43 47 48 49 50 52 53 57 59 59 52 52 55 56 63 66 67 67 73 73 70 71 72 73 74 73 74 75 75 73 74 71
26 27 26 30 29 29 30 33 35 34 36 38 41 41 44 46 48 53 55 58 61 57 60 63 62 63 67 69 69 69 71 72 72 71 72 73 73 73 73 71 72 71 70 70
27 29 28 28 31 33 33 34 35 35 34 33 36 39 45 46 47 54 56 62 62 60 65 66 67 67 70 71 71 70 71 71 71 71 71 72 71 73 73 72 67 70 72 64
29 29 27 27 32 32 35 34 37 39 43 44 44 45 47 49 51 55 61 64 65 67 68 69 70 70 71 70 71 73 73 71 71 70 69 68 69 70 71 70 66 50 48 46

GFSCGP_sfc_dewp_045.txt.gz
Dewpoint
39 35 34 29 36 33 26 23 24 28 33 33 36 37 41 45 47 46 51 55 55 54 56 57 59 59 60 62 65 69 71 75 71 68 68 66 64 65 63 63 69 71 72 73
33 34 30 29 26 31 29 24 23 25 30 33 34 37 40 41 45 47 48 54 55 55 55 57 59 59 60 63 67 71 73 76 74 70 70 67 67 62 63 63 71 71 72 75
24 27 28 19 19 24 28 26 24 23 27 32 32 34 35 37 39 45 45 52 54 56 56 56 57 59 59 62 67 70 74 75 75 74 71 71 69 67 63 64 66 70 73 73
21 19 19 17 17 17 16 21 22 22 25 28 30 28 35 34 36 39 42 47 52 54 57 56 56 58 58 61 64 71 75 76 75 77 72 73 66 63 62 64 65 69 74 73
21 16 17 19 17 18 18 16 21 23 24 27 28 28 30 34 34 35 39 41 48 52 55 55 56 57 58 59 61 67 75 77 76 76 76 70 71 64 63 63 73 75 77 75
22 20 18 17 17 17 18 17 17 19 20 21 26 27 28 28 35 35 39 41 44 50 53 55 57 56 57 57 60 64 74 77 77 77 77 77 74 71 64 67 66 67 67 71
20 20 19 19 17 17 17 14 13 14 15 17 21 24 29 28 29 34 35 40 42 48 52 54 56 56 58 59 62 64 74 77 78 77 76 76 77 76 75 74 68 70 65 65
17 16 19 17 17 17 17 14 12 18 12 12 20 21 24 28 28 29 35 37 42 46 51 54 56 57 58 61 64 67 73 76 77 77 77 78 78 71 70 72 68 67 65 65
19 19 18 17 17 18 19 16 12 10 10 8 9 19 21 24 26 29 31 34 39 44 49 52 55 56 57 61 66 68 72 76 77 77 78 78 78 77 72 74 75 70 73 66
24 23 19 17 18 18 19 18 12 11 18 16 11 17 17 25 25 26 29 33 35 42 48 51 53 57 59 59 63 68 71 75 76 76 77 77 78 78 77 76 76 75 75 76
25 26 25 22 20 18 17 18 17 12 12 13 14 13 18 25 27 26 28 31 32 36 44 48 52 55 59 60 61 65 69 72 75 76 76 77 77 77 78 76 76 77 78 79
26 26 27 21 19 20 18 19 21 20 24 14 14 15 17 18 19 25 27 31 31 36 40 46 50 54 56 60 60 62 66 68 73 74 76 76 77 77 77 77 76 77 78 79
32 28 27 27 20 20 21 18 17 18 14 25 14 17 25 22 24 26 28 29 36 39 41 43 47 52 55 57 63 63 65 65 67 72 73 75 76 77 77 77 78 77 78 78
38 30 30 24 26 22 22 19 17 15 19 19 19 20 24 23 25 32 31 32 35 41 43 44 46 49 53 58 64 66 63 63 65 68 71 74 76 76 76 77 78 78 78 78
32 33 32 29 26 24 21 19 18 19 21 20 20 24 25 26 28 31 32 35 35 37 39 43 44 46 50 58 65 67 65 66 65 69 71 73 76 77 78 77 77 78 78 78
32 31 34 31 27 28 25 22 19 19 19 19 20 22 26 26 28 30 32 32 31 33 38 41 44 48 50 54 63 66 68 67 68 70 70 73 75 77 78 78 78 78 78 78
30 29 33 32 31 29 27 26 25 23 21 21 21 26 27 29 30 31 34 35 34 35 35 36 37 45 51 52 58 62 67 69 70 70 73 73 75 76 77 78 78 78 78 78
28 32 30 27 32 28 28 28 26 26 26 24 25 28 30 31 33 34 37 37 37 37 37 37 34 37 43 47 49 60 59 70 71 72 71 74 75 76 77 78 78 79 78 78
25 28 27 25 26 27 27 27 28 28 29 30 29 31 30 31 32 35 34 35 36 38 38 37 35 33 37 37 48 53 59 64 70 72 73 73 75 76 77 77 78 78 78 78
22 27 24 26 25 26 28 27 26 30 28 31 30 32 31 34 30 31 37 40 44 46 47 50 44 37 36 41 38 46 53 66 70 72 73 74 75 76 76 77 78 78 78 77
19 23 21 21 24 26 28 30 30 28 42 43 37 37 40 43 48 53 52 51 52 53 54 54 53 51 52 51 54 58 58 62 68 69 72 75 76 77 78 78 78 78 77 76
25 21 20 21 22 23 26 24 28 40 44 44 45 46 47 48 49 50 51 53 53 55 56 56 55 54 53 57 64 67 69 68 73 72 73 75 77 74 74 79 78 78 78 77
19 25 21 22 21 32 27 29 28 31 36 39 40 40 43 43 43 46 48 52 55 56 59 59 57 60 61 63 67 69 73 76 74 75 75 76 77 76 76 77 78 75 77 72
24 25 22 27 28 28 29 30 31 31 34 35 36 38 36 37 38 42 47 48 54 56 60 61 59 62 64 66 68 73 73 76 76 76 76 76 77 77 76 73 73 72 71 71
23 25 26 26 28 30 31 32 32 33 34 34 35 35 36 43 42 44 46 50 55 57 62 61 65 64 64 68 70 70 72 74 73 73 72 74 72 74 74 72 67 70 70 63
26 28 24 22 29 30 33 31 32 33 33 35 34 37 40 42 41 44 45 50 57 60 66 66 68 70 73 72 74 74 72 73 73 71 70 68 68 71 71 70 66 49 49 46

GFSCGP_sfc_dewp_048.txt.gz
Dewpoint
36 30 28 30 32 32 32 32 28 29 33 33 33 38 46 54 57 55 51 55 53 54 57 59 59 60 62 64 68 69 71 74 72 72 71 71 69 72 72 73 73 76 76 76
34 32 31 29 32 31 32 29 25 25 28 33 34 35 50 55 56 56 56 61 55 54 55 59 60 60 61 65 68 71 72 74 73 72 72 71 72 70 70 72 74 75 75 77
33 33 33 30 30 26 31 30 27 23 24 34 34 33 38 50 51 55 59 56 54 55 54 57 59 60 61 64 68 70 72 75 74 73 73 74 73 74 70 69 71 73 75 76
34 32 30 30 27 26 25 31 29 25 23 22 33 30 39 38 41 51 48 50 51 54 56 55 57 59 60 64 67 71 73 74 74 75 72 73 68 67 68 69 70 72 74 75
33 32 27 28 27 24 22 23 26 26 24 22 23 29 32 40 37 36 43 44 51 52 55 55 56 59 60 62 66 69 73 74 75 74 75 71 71 68 69 69 73 73 76 76
31 31 23 19 23 17 17 16 18 22 22 22 24 29 31 33 39 35 39 40 49 51 54 56 57 58 59 61 65 68 72 74 75 75 74 76 72 72 67 69 70 72 74 75
31 32 22 16 17 16 15 14 14 15 17 20 23 24 32 33 36 35 37 39 42 51 53 57 58 57 60 61 63 66 73 74 75 75 75 74 76 73 73 76 68 71 70 72
21 26 27 17 17 17 16 14 16 20 15 14 22 23 27 32 32 35 37 39 40 45 53 56 58 59 60 60 63 66 71 74 75 74 75 75 75 75 71 73 71 69 70 70
22 22 24 21 18 18 17 15 13 13 12 11 14 21 22 28 29 31 29 37 40 42 51 55 57 58 59 60 63 65 70 74 75 75 76 76 75 75 74 73 74 74 73 71
23 22 20 20 19 18 17 17 13 13 19 19 13 23 22 29 31 31 29 31 37 43 47 53 56 59 59 59 62 65 69 73 75 75 76 76 76 75 74 75 73 73 75 76
19 22 21 21 21 18 16 17 16 12 14 15 15 14 22 32 31 32 31 33 33 40 46 50 54 58 60 60 60 64 67 72 74 75 76 76 76 76 75 73 74 74 75 76
26 18 22 22 20 20 17 18 20 21 26 18 19 15 24 24 28 28 30 33 34 39 46 49 53 57 59 60 60 62 64 67 73 75 76 76 76 77 76 75 74 75 76 77
33 28 24 25 24 20 20 18 16 19 14 28 17 17 28 25 27 30 30 32 40 46 48 50 51 57 59 61 62 62 64 65 68 74 75 75 76 76 76 76 75 75 75 76
37 32 31 24 28 25 24 19 18 15 22 20 21 23 25 24 24 30 36 36 39 46 45 50 51 53 59 62 64 65 64 64 67 70 73 75 76 76 76 77 77 76 76 75
33 33 32 27 26 25 19 19 19 20 23 22 22 25 28 29 29 35 38 40 41 45 46 53 49 53 59 63 65 66 65 67 66 69 71 74 75 76 77 77 77 77 76 76
32 33 34 32 30 28 26 19 19 19 17 19 21 22 31 32 36 39 41 40 44 46 46 50 53 56 58 62 66 66 67 67 68 70 70 73 75 75 76 76 76 77 77 77
30 31 33 31 32 30 28 27 21 22 21 20 23 30 34 34 37 40 43 39 41 39 42 49 52 59 66 61 66 67 67 68 70 70 72 73 74 75 76 76 77 76 77 77
27 31 32 30 34 30 31 31 28 24 22 21 23 26 29 35 38 41 43 40 37 37 40 47 41 46 55 51 51 66 68 71 70 72 72 74 75 75 76 76 77 77 76 77
26 28 28 29 29 32 31 30 29 28 28 27 25 28 31 33 34 39 38 40 43 47 48 48 41 41 55 51 55 65 65 69 71 71 72 73 75 75 76 76 76 77 77 76
23 28 27 29 27 27 32 30 29 30 28 32 30 30 31 32 30 40 52 50 52 54 57 58 56 54 56 60 49 66 64 70 70 71 72 74 73 75 75 76 76 77 77 76
20 24 24 25 26 28 35 31 28 30 43 46 46 43 35 40 50 53 51 53 54 55 56 59 60 60 63 65 66 71 72 69 71 71 73 74 75 74 76 77 77 77 77 77
21 22 22 25 26 27 32 30 36 46 45 42 43 44 46 48 48 47 48 51 52 57 57 58 62 63 65 66 68 69 72 74 78 74 74 75 76 73 74 77 77 78 77 77
22 30 24 26 25 38 30 33 34 32 37 39 40 39 41 40 40 41 43 50 51 54 58 59 64 66 68 67 75 74 75 78 78 78 76 76 76 76 75 77 77 76 77 76
26 26 23 27 30 31 30 30 33 32 33 34 34 35 37 38 37 42 44 48 51 54 57 59 63 66 68 74 74 76 77 77 78 78 77 77 77 76 76 75 76 76 75 75
24 26 26 27 30 30 29 30 31 33 34 33 34 34 35 36 36 43 46 49 51 54 59 61 66 69 71 76 76 75 77 76 76 77 76 76 75 76 76 72 69 74 69 65
28 30 30 30 36 37 38 33 32 31 31 33 33 34 35 36 40 43 46 48 49 52 61 62 68 67 70 74 74 76 78 77 77 75 75 72 72 74 74 68 65 48 48 46